Weather History for Devils Lake, ND

Change the Weather History Date:

Monday, January 13, 2014

  Actual Average Record
Temperature  
Mean Temperature 14 °F -  
Max Temperature 21 °F 17 °F 43 °F (1987)
Min Temperature 6 °F 0 °F -28 °F (1977)
Degree Days  
Heating Degree Days 52    
Moisture  
Dew Point 6 °F    
Average Humidity 68    
Maximum Humidity 79    
Minimum Humidity 62    
Precipitation  
Precipitation 0.00 in - - ()
Sea Level Pressure  
Sea Level Pressure 29.54 in    
Wind  
Wind Speed 14 mph (WSW)    
Max Wind Speed 25 mph    
Max Gust Speed 31 mph    
Visibility 10 miles    
Events      
Averages and records for this station are not official NWS values.
T = Trace of Precipitation, MM = Missing Value Source: NWS Daily Summary

Daily Weather History Graph

Daily Weather History Graph

Search for Another Location

Airport:

Trip Planner

Search our weather history database for the weather conditions in past years. The results will help you decide how hot, cold, wet, or windy it might be!

Date:

Astronomy

Jan. 13, 2014 Rise Set
Actual Time 8:22 AM CST 5:06 PM CST
Civil Twilight 7:46 AM CST 5:42 PM CST
Nautical Twilight 7:08 AM CST 6:21 PM CST
Astronomical Twilight 6:30 AM CST 6:58 PM CST
Moon 3:24 PM CST (1/13) 6:10 AM CST (1/13)
Length of Visible Light 9h 55m
Length of Day
8h 44m
Waxing Gibbous, 95% of the Moon is Illuminated
Jan 13
Waxing Gibbous
Jan 15
Full
Jan 23
Last Quarter
Jan 30
New
Feb 6
First Quarter

Hourly Weather History & Observations

Time (CST) Temp. Windchill Dew Point Humidity Pressure Visibility Wind Dir Wind Speed Gust Speed Precip Events Conditions
12:15 AM 21.2 °F 6.8 °F 12.2 °F 68% 29.56 in 10.0 mi West 17.3 mph - N/A   Partly Cloudy
12:35 AM 21.2 °F 6.0 °F 12.2 °F 68% 29.56 in 10.0 mi WNW 19.6 mph - N/A   Partly Cloudy
12:55 AM 21.2 °F 4.5 °F 12.2 °F 68% 29.55 in 10.0 mi WNW 24.2 mph - N/A   Mostly Cloudy
1:15 AM 21.2 °F 5.6 °F 10.4 °F 63% 29.57 in 10.0 mi WNW 20.7 mph - N/A   Overcast
1:35 AM 19.4 °F 1.8 °F 10.4 °F 68% 29.56 in 10.0 mi WNW 25.3 mph 31.1 mph N/A   Overcast
1:55 AM 19.4 °F 2.5 °F 10.4 °F 68% 29.56 in 10.0 mi WNW 23.0 mph 27.6 mph N/A   Overcast
2:15 AM 17.6 °F 0.5 °F 10.4 °F 73% 29.57 in 10.0 mi WNW 21.9 mph - N/A   Mostly Cloudy
2:35 AM 17.6 °F 1.3 °F 8.6 °F 68% 29.59 in 10.0 mi WNW 19.6 mph - N/A   Partly Cloudy
2:55 AM 15.8 °F -1.5 °F 6.8 °F 68% 29.58 in 10.0 mi WNW 20.7 mph - N/A   Clear
3:15 AM 15.8 °F -0.6 °F 6.8 °F 68% 29.58 in 10.0 mi WNW 18.4 mph - N/A   Clear
3:35 AM 15.8 °F 1.4 °F 5.0 °F 62% 29.59 in 10.0 mi WNW 13.8 mph - N/A   Scattered Clouds
3:55 AM 14.0 °F -0.8 °F 5.0 °F 67% 29.59 in 10.0 mi WNW 13.8 mph - N/A   Mostly Cloudy
4:15 AM 14.0 °F -3.4 °F 3.2 °F 62% 29.59 in 10.0 mi WNW 19.6 mph 23.0 mph N/A   Mostly Cloudy
4:35 AM 12.2 °F -6.7 °F 3.2 °F 67% 29.58 in 10.0 mi WNW 21.9 mph - N/A   Overcast
4:55 AM 12.2 °F -5.3 °F 3.2 °F 67% 29.59 in 10.0 mi WNW 18.4 mph 23.0 mph N/A   Overcast
5:15 AM 12.2 °F -4.8 °F 3.2 °F 67% 29.59 in 10.0 mi WNW 17.3 mph - N/A   Mostly Cloudy
5:35 AM 12.2 °F -4.8 °F 1.4 °F 62% 29.60 in 10.0 mi WNW 17.3 mph - N/A   Overcast
5:55 AM 12.2 °F -3.7 °F 3.2 °F 67% 29.60 in 10.0 mi WNW 15.0 mph - N/A   Overcast
6:15 AM 12.2 °F -4.3 °F 3.2 °F 67% 29.60 in 10.0 mi West 16.1 mph - N/A   Overcast
6:35 AM 10.4 °F -6.6 °F 1.4 °F 67% 29.60 in 10.0 mi WNW 16.1 mph - N/A   Overcast
6:55 AM 10.4 °F -5.4 °F 1.4 °F 67% 29.58 in 10.0 mi WNW 13.8 mph - N/A   Overcast
7:15 AM 8.6 °F -7.0 °F -0.4 °F 67% 29.58 in 10.0 mi WNW 12.7 mph - N/A   Scattered Clouds
7:35 AM 8.6 °F -6.3 °F -0.4 °F 67% 29.58 in 10.0 mi WNW 11.5 mph - N/A   Scattered Clouds
7:55 AM 8.6 °F -7.0 °F -0.4 °F 67% 29.58 in 10.0 mi West 12.7 mph - N/A   Scattered Clouds
8:15 AM 8.6 °F -6.3 °F -0.4 °F 67% 29.57 in 10.0 mi WNW 11.5 mph - N/A   Clear
8:35 AM 8.6 °F -4.7 °F -0.4 °F 67% 29.57 in 10.0 mi WNW 9.2 mph - N/A   Clear
8:55 AM 6.8 °F -4.8 °F -0.4 °F 72% 29.58 in 10.0 mi West 6.9 mph - N/A   Clear
9:15 AM 6.8 °F -3.5 °F -0.4 °F 72% 29.58 in 10.0 mi NW 5.8 mph - N/A   Clear
9:35 AM 6.8 °F -2.0 °F -2.2 °F 67% 29.59 in 10.0 mi West 4.6 mph - N/A   Clear
9:55 AM 8.6 °F - -0.4 °F 67% 29.59 in 10.0 mi Calm Calm - N/A   Clear
10:15 AM 10.4 °F - -0.4 °F 62% 29.60 in 10.0 mi Calm Calm - N/A   Clear
10:35 AM 10.4 °F 0.8 °F -0.4 °F 62% 29.60 in 10.0 mi West 5.8 mph - N/A   Scattered Clouds
10:55 AM 10.4 °F - 1.4 °F 67% 29.59 in 10.0 mi Calm Calm - N/A   Scattered Clouds
11:15 AM 12.2 °F - 1.4 °F 62% 29.58 in 10.0 mi Calm Calm - N/A   Clear
11:35 AM 10.4 °F 4.0 °F 1.4 °F 67% 29.58 in 10.0 mi SSW 3.5 mph - N/A   Clear
11:55 AM 12.2 °F - 3.2 °F 67% 29.58 in 10.0 mi Calm Calm - N/A   Partly Cloudy
12:15 PM 12.2 °F 2.9 °F 3.2 °F 67% 29.55 in 10.0 mi ESE 5.8 mph - N/A   Mostly Cloudy
12:35 PM 14.0 °F 8.2 °F 3.2 °F 62% 29.54 in 10.0 mi SSE 3.5 mph - N/A   Overcast
12:55 PM 14.0 °F 3.9 °F 3.2 °F 62% 29.53 in 10.0 mi South 6.9 mph - N/A   Overcast
1:15 PM 14.0 °F 3.9 °F 5.0 °F 67% 29.51 in 10.0 mi SE 6.9 mph - N/A   Scattered Clouds
1:35 PM 15.8 °F 4.2 °F 6.8 °F 68% 29.49 in 10.0 mi SSE 9.2 mph - N/A   Clear
1:55 PM 15.8 °F 6.1 °F 5.0 °F 62% 29.49 in 10.0 mi SSE 6.9 mph - N/A   Mostly Cloudy
2:15 PM 17.6 °F 6.4 °F 6.8 °F 63% 29.49 in 10.0 mi South 9.2 mph - N/A   Overcast
2:35 PM 17.6 °F 6.4 °F 6.8 °F 63% 29.48 in 10.0 mi SSE 9.2 mph - N/A   Overcast
2:55 PM 17.6 °F 6.4 °F 6.8 °F 63% 29.47 in 10.0 mi SSE 9.2 mph - N/A   Overcast
3:15 PM 17.6 °F 9.3 °F 8.6 °F 68% 29.48 in 10.0 mi SSE 5.8 mph - N/A   Overcast
3:35 PM 17.6 °F 6.4 °F 8.6 °F 68% 29.49 in 10.0 mi SSE 9.2 mph - N/A   Overcast
3:55 PM 17.6 °F 5.7 °F 8.6 °F 68% 29.48 in 10.0 mi SSE 10.4 mph - N/A   Overcast
4:15 PM 17.6 °F 7.3 °F 8.6 °F 68% 29.47 in 10.0 mi SSE 8.1 mph - N/A   Overcast
4:35 PM 19.4 °F 10.4 °F 8.6 °F 63% 29.47 in 10.0 mi SE 6.9 mph - N/A   Overcast
4:55 PM 19.4 °F 9.5 °F 8.6 °F 63% 29.49 in 10.0 mi East 8.1 mph - N/A   Overcast
5:15 PM 19.4 °F 8.6 °F 8.6 °F 63% 29.49 in 10.0 mi SE 9.2 mph - N/A   Overcast
5:35 PM 19.4 °F 9.5 °F 10.4 °F 68% 29.48 in 10.0 mi SE 8.1 mph - N/A   Overcast
5:55 PM 19.4 °F 7.2 °F 10.4 °F 68% 29.46 in 10.0 mi SE 11.5 mph - N/A   Overcast
6:15 PM 19.4 °F 7.9 °F 10.4 °F 68% 29.46 in 10.0 mi SE 10.4 mph - N/A   Overcast
6:35 PM 19.4 °F 8.6 °F 10.4 °F 68% 29.47 in 10.0 mi SE 9.2 mph - N/A   Overcast
6:55 PM 19.4 °F 9.5 °F 10.4 °F 68% 29.46 in 10.0 mi SE 8.1 mph - N/A   Overcast
7:15 PM 19.4 °F 8.6 °F 10.4 °F 68% 29.47 in 10.0 mi ESE 9.2 mph - N/A   Overcast
7:35 PM 17.6 °F 6.4 °F 10.4 °F 73% 29.47 in 10.0 mi ESE 9.2 mph - N/A   Overcast
7:55 PM 17.6 °F 7.3 °F 10.4 °F 73% 29.47 in 10.0 mi SE 8.1 mph - N/A   Overcast
8:15 PM 19.4 °F 9.5 °F 10.4 °F 68% 29.48 in 7.0 mi ESE 8.1 mph - N/A   Overcast
8:35 PM 17.6 °F 7.3 °F 10.4 °F 73% 29.48 in 10.0 mi SE 8.1 mph - N/A   Overcast
8:55 PM 17.6 °F 10.7 °F 10.4 °F 73% 29.50 in 4.0 mi SE 4.6 mph - N/A   Overcast
9:15 PM 17.6 °F - 10.4 °F 73% 29.52 in 2.5 mi Calm Calm - N/A   Overcast
9:35 PM 17.6 °F 12.3 °F 10.4 °F 73% 29.54 in 9.0 mi NE 3.5 mph - N/A   Overcast
9:55 PM 17.6 °F 12.3 °F 12.2 °F 79% 29.54 in 10.0 mi ENE 3.5 mph - N/A   Overcast
10:15 PM 17.6 °F - 10.4 °F 73% 29.56 in 9.0 mi Calm Calm - N/A   Overcast
10:35 PM 17.6 °F 12.3 °F 10.4 °F 73% 29.56 in 5.0 mi NNE 3.5 mph - N/A   Overcast
10:55 PM 17.6 °F 10.7 °F 10.4 °F 73% 29.58 in 10.0 mi North 4.6 mph - N/A   Overcast
11:15 PM 17.6 °F 6.4 °F 10.4 °F 73% 29.60 in 10.0 mi WNW 9.2 mph - N/A   Overcast
11:35 PM 17.6 °F 3.7 °F 12.2 °F 79% 29.62 in 10.0 mi NW 13.8 mph - N/A   Overcast
11:55 PM 17.6 °F 1.7 °F 10.4 °F 73% 29.63 in 10.0 mi NW 18.4 mph - N/A   Overcast